Regional Weather Roundup
Issued by NWS

Home | Current Version | Previous Version | Graphics & Text | Print | Product List | Glossary On
Versions: 1 2 3 4 5 6 7 8 9 10 11 12 13 14 15 16 17 18 19 20 21 22 23 24 25 26 27 28 29 30 31 32 33 34 35 36 37 38 39 40 41 42 43 44 45 46 47 48 49 50
000
ASUS43 KMPX 200610
RWRMN
WEATHER ROUNDUP FOR MINNESOTA
NATIONAL WEATHER SERVICE TWIN CITIES/CHANHASSEN MN
100 AM CDT FRI APR 20 2018


NOTE: "FAIR" INDICATES FEW OR NO CLOUDS BELOW 12,000 FEET WITH NO
SIGNIFICANT WEATHER AND/OR OBSTRUCTIONS TO VISIBILITY. N/A MEANS
CURRENT SKY AND/OR WEATHER CONDITIONS ARE NOT AVAILABLE.

MNZ060>063-068>070-200700-
   Twin Cities Metro

CITY           SKY/WX    TMP DP  RH WIND       PRES   REMARKS
TWIN CITIES    FAIR      38  24  57 CALM      30.46R
6HR MIN TEMP:  38; 6HR MAX TEMP:  50;

ST PAUL        FAIR      34  27  75 CALM      30.47R
CRYSTAL        FAIR      30  22  72 CALM      30.45R
BLAINE         FAIR      34  25  69 CALM      30.45R
LAKEVILLE      FAIR      28  25  86 CALM      30.46S
EDEN PRAIRIE   FAIR      34  24  67 SW5       30.45R WCI  30
6HR MIN TEMP:  33; 6HR MAX TEMP:  48;

SOUTH ST PAUL  FAIR      33  24  69 CALM      30.46R
LAKE ELMO      FAIR      30  23  74 CALM      30.46R
$$
MNZ001>005-007-008-013>017-022>024-027-028-200700-
   Northwest Minnesota

CITY           SKY/WX    TMP DP  RH WIND       PRES   REMARKS
BEMIDJI        FAIR      30  20  67 CALM      30.39S
HALLOCK        FAIR      36  34  93 S7        30.37S
ROSEAU         FAIR      37  30  75 CALM      30.38S
WARROAD        FAIR      34  27  75 SW5       30.38S WCI  30
THIEF RVR FALL FAIR      39  29  67 SE3       30.39S
CROOKSTON      FAIR      36  32  87 S3        30.39S
FOSSTON        FAIR      28  18  64 CALM      30.40R
DETROIT LAKES  FAIR      37  30  75 CALM      30.42R
MOORHEAD       FAIR      39  34  81 S10       30.41R
PARK RAPIDS    FAIR      32  24  72 CALM      30.40R
MAHNOMEN       FAIR      36  26  66 SE6       30.39S
$$
MNZ006-009>011-018-025>026-200700-
   North Central Minnesota

CITY           SKY/WX    TMP DP  RH WIND       PRES   REMARKS
BAUDETTE       FAIR      30  24  78 CALM      30.38R
FLAG ISLAND    FAIR      37  21  52 CALM      30.37R
INTL FALLS     FAIR      26  20  77 CALM      30.38R
6HR MIN TEMP:  26; 6HR MAX TEMP:  54;

WASKISH        FAIR      27  21  80 CALM      30.39R
BIG FORK       FAIR      27  18  69 CALM      30.39R
LONGVILLE      FAIR      27  21  80 CALM      30.41R
GRAND RAPIDS   FAIR      35  20  54 CALM      30.41R
CRANE LAKE     FAIR      21  19  93 CALM      30.40S
ORR            FAIR      27  18  69 CALM      30.36R
COOK           FAIR      25  19  80 CALM      30.39R
WALKER         FAIR      38  24  55 W5        30.39S
$$
MNZ012-019>021-037-200700-
   Northeast Minnesota

CITY           SKY/WX    TMP DP  RH WIND       PRES   REMARKS
DULUTH         FAIR      37  17  44 W8        30.39R
6HR MIN TEMP:  37; 6HR MAX TEMP:  52;

ELY            FAIR      27  18  69 CALM      30.38S
HIBBING        FAIR      26  17  68 CALM      30.39R
EVELETH        FAIR      27  19  73 CALM      30.39S
DULUTH HARBOR  FAIR      37  21  52 SW7       30.41S
TWO HARBORS    FAIR      30  21  69 W5        30.37S WCI  25
SILVER BAY     FAIR      28  19  69 CALM      30.37S
GRAND MARAIS     N/A     32  19  58 CALM      30.38S
G MARAIS ARPRT FAIR      27  16  63 NW3       30.37S
$$
MNZ029>031-032-039>041-046>048-054>057-064-200700-
   West Central Minnesota

CITY           SKY/WX    TMP DP  RH WIND       PRES   REMARKS
FERGUS FALLS   FAIR      36  30  80 S6        30.42R
WHEATON        CLOUDY    36  28  75 S8        30.45R
MORRIS         CLOUDY    34  28  80 S3        30.44R
ALEXANDRIA     FAIR      36  25  64 SW7       30.44R
ELBOW LAKE     FAIR      30  28  90 S7        30.44R WCI  23
WADENA         FAIR      34  27  75 SW5       30.42R WCI  30
GLENWOOD       FAIR      32  27  80 SW8       30.44S WCI  25
APPLETON       CLOUDY    34  27  75 CALM      30.45R
BENSON         CLOUDY    32  27  80 CALM      30.46S
ORTONVILLE     CLEAR     34  28  80 S3        30.44R
MADISON        CLEAR     32  28  86 S5        30.45R WCI  27
WILLMAR        FAIR      34  27  75 CALM      30.48R
$$
MNZ033>034-036-042>043-049>051-058-059-200700-
   Central Minnesota

CITY           SKY/WX    TMP DP  RH WIND       PRES   REMARKS
ST CLOUD       FAIR      30  28  92 CALM      30.44R
6HR MIN TEMP:  29; 6HR MAX TEMP:  50;

SAUK CENTRE    FAIR      35  26  71 CALM      30.44R
PAYNESVILLE    FAIR      32  29  87 SW3       30.45S
AITKIN         FAIR      30  21  69 SW3       30.40S
PINE RIVER     FAIR      28  21  74 CALM      30.44R
BRAINERD       FAIR      31  22  69 S3        30.42R
STAPLES        FAIR      34  23  64 S3        30.42R
LONG PRAIRIE   FAIR      32  27  80 S3        30.44R
LITTLE FALLS   FAIR      30  23  74 CALM      30.44R
LITCHFIELD     FAIR      34  27  75 CALM      30.46R
BUFFALO        FAIR      32  26  77 CALM      30.47R
MAPLE LAKE     FAIR      33  28  82 CALM      30.45S
HUTCHINSON     FAIR      28  27  96 CALM      30.48R
$$
MNZ037-044-045-052-053-200700-
   East Central Minnesota

CITY           SKY/WX    TMP DP  RH WIND       PRES   REMARKS
PRINCETON      FAIR      30  25  80 CALM      30.45R
MORA           FAIR      30  25  80 CALM      30.45R
CAMBRIDGE      FAIR      34  23  64 CALM      30.45R
RUSH CITY      FAIR      36  25  65 SW3       30.44R
MOOSE LAKE     FAIR      30  16  55 SW3       30.40R
HINCKLEY       FAIR      34  27  75 W3        30.43R
CLOQUET        FAIR      36  16  44 W5        30.40R
MCGREGOR       FAIR      32  23  69 SW3       30.42R
$$
MNZ071>073-080-081-089-090-097-098-200700-
   Southwest Minnesota

CITY           SKY/WX    TMP DP  RH WIND       PRES   REMARKS
MONTEVIDEO     CLEAR     32  27  80 SW7       30.46R WCI  26
GRANITE FALLS  CLEAR     31  27  87 S5        30.48R WCI  26
CANBY          CLOUDY    37  25  62 W6        30.46R
MARSHALL       CLOUDY    31  23  72 S9        30.46R WCI  23
REDWOOD FALLS  CLOUDY    29  23  78 SW5       30.46R WCI  24
OLIVIA         CLOUDY    32  28  86 CALM      30.46R
PIPESTONE      CLOUDY   N/A N/A N/A S3        30.43S
WINDOM         CLOUDY    25  12  58 CALM      30.46S
WORTHINGTON    CLOUDY    27  23  85 SE5       30.46R WCI  22
JACKSON        CLOUDY    27  21  80 S3        30.47R
TRACY          CLOUDY    30  25  80 SW6       30.45R WCI  24
SLAYTON        CLOUDY    26  24  92 CALM      30.45S
$$
MNZ065>067-074>077-082>085-091>093-200700-
   South Central Minnesota

CITY           SKY/WX    TMP DP  RH WIND       PRES   REMARKS
MANKATO        FAIR      32  22  66 CALM      30.48R
NEW ULM        CLOUDY    28  21  74 SW5       30.48R WCI  23
ST JAMES       CLOUDY    23  19  86 SW3       30.49R
FAIRMONT       CLOUDY    21  18  88 W3        30.48R
GLENCOE        FAIR      31  27  86 SW3       30.46R
OWATONNA       FAIR      30  25  80 CALM      30.47R
WASECA         FAIR      27  23  86 CALM      30.48S
ALBERT LEA     FAIR      25  19  80 CALM      30.47R
$$
MNZ078>079-086>088-094>096-200700-
   Southeast Minnesota

CITY           SKY/WX    TMP DP  RH WIND       PRES   REMARKS
ROCHESTER      FAIR      30  24  78 W8        30.46R WCI  22
6HR MIN TEMP:  30; 6HR MAX TEMP:  41;

RED WING       FAIR      28  19  69 CALM      30.46R
STANTON        FAIR      28  23  82 SW6       30.45S WCI  22
DODGE CENTER   FAIR      28  23  80 SW7       30.46R WCI  21
WINONA         FAIR      30  27  86 CALM      30.46R
AUSTIN         FAIR      25  21  86 CALM      30.46S FOG
PRESTON        FAIR      29  22  75 W3        30.46S
$$
ABBREVIATIONS USED IN REMARKS
   TC - TEMPERATURES IN CELSIUS
  WCI - WIND CHILL INDEX
   HX - HEAT INDEX
  VSB - VISIBILITY
$$




USA.gov is the U.S. government's official web portal to all federal, state and local government web resources and services.